Terug naar catalogus

STARLINK-4090

ActiefCommunicatieVLEO
NORAD 53165·PAYLOAD·🇺🇸 United States

Gelanceerd Jul 17, 2022 vanaf Cape Canaveral Space Force Station

Loading…

Volgende Passages (komende 24 uur)

TLE

VersSource: CelesTrak SupGP

Epoch: Sep 14, 2026, 22:05 UTC

1 53165C 22083AK  26257.92062500 -.00001848  00000+0 -52844-4 0  2577
2 53165  53.1603  29.7929 0001148  73.5920 215.5465 15.35415191    12

Volg STARLINK-4090 in realtime met AllMySat

Download on the App Store